Weather History for KUES - March, 2011

Change the Weather History Date:

Monday, March 28, 2011

  Actual Average Record
Temperature  
Mean Temperature 24 °F -  
Max Temperature 34 °F 49 °F 74 °F (1968)
Min Temperature 15 °F 31 °F 8 °F (1970)
Degree Days  
Heating Degree Days 41    
Moisture  
Dew Point 12 °F    
Average Humidity 67    
Maximum Humidity 80    
Minimum Humidity 35    
Precipitation  
Precipitation 0.00 in - - ()
Sea Level Pressure  
Sea Level Pressure 30.27 in    
Wind  
Wind Speed 3 mph (North)    
Max Wind Speed 12 mph    
Max Gust Speed -    
Visibility 10 miles    
Events      
Averages and records for this station are not official NWS values.
T = Trace of Precipitation, MM = Missing Value Source: NWS Daily Summary

Daily Weather History Graph

Daily Weather History Graph

Search for Another Location

Airport or City:

Trip Planner

Search our weather history database for the weather conditions in past years. The results will help you decide how hot, cold, wet, or windy it might be!

Date:

Astronomy

Mar. 28, 2011 Rise Set
Actual Time 6:42 AM CDT 7:14 PM CDT
Civil Twilight 6:14 AM CDT 7:42 PM CDT
Nautical Twilight 5:40 AM CDT 8:16 PM CDT
Astronomical Twilight 5:05 AM CDT 8:51 PM CDT
Moon 3:43 AM CDT (3/28) 1:47 PM CDT (3/28)
Length of Visible Light 13h 28m
Length of Day
12h 31m
Waning Crescent, 29% of the Moon is Illuminated
Mar 28
Waning Crescent
Apr 3
New
Apr 11
First Quarter
Apr 17
Full
Apr 24
Last Quarter

Hourly Weather History & Observations

Time (CDT) Temp. Windchill Dew Point Humidity Pressure Visibility Wind Dir Wind Speed Gust Speed Precip Events Conditions
12:14 AM 18.5 °F 13.3 °F 11.1 °F 73% 30.25 in 10.0 mi NW 3.5 mph - N/A   Clear
12:34 AM 17.6 °F 12.3 °F 10.9 °F 75% 30.25 in 10.0 mi NW 3.5 mph - N/A   Clear
12:54 AM 17.2 °F - 10.6 °F 75% 30.25 in 10.0 mi Calm Calm - N/A   Clear
1:14 AM 17.4 °F - 10.4 °F 74% 30.25 in 10.0 mi Calm Calm - N/A   Clear
1:34 AM 17.2 °F 11.9 °F 10.4 °F 75% 30.25 in 10.0 mi NW 3.5 mph - N/A   Clear
1:54 AM 16.7 °F 11.2 °F 10.2 °F 76% 30.25 in 10.0 mi WNW 3.5 mph - N/A   Clear
2:14 AM 17.1 °F 11.7 °F 10.0 °F 74% 30.26 in 10.0 mi WNW 3.5 mph - N/A   Clear
2:34 AM 16.5 °F 9.4 °F 9.5 °F 74% 30.26 in 10.0 mi WNW 4.6 mph - N/A   Clear
3:14 AM 16.3 °F 10.8 °F 9.1 °F 73% 30.26 in 10.0 mi WNW 3.5 mph - N/A   Clear
3:34 AM 16.5 °F 11.0 °F 9.3 °F 73% 30.26 in 10.0 mi WNW 3.5 mph - N/A   Clear
3:54 AM 16.2 °F - 8.8 °F 73% 30.27 in 10.0 mi Calm Calm - N/A   Clear
4:14 AM 16.5 °F 11.0 °F 8.6 °F 71% 30.27 in 10.0 mi West 3.5 mph - N/A   Clear
4:34 AM 16.2 °F - 8.8 °F 73% 30.27 in 10.0 mi Calm Calm - N/A   Clear
4:54 AM 15.8 °F - 8.4 °F 73% 30.27 in 10.0 mi Calm Calm - N/A   Clear
5:14 AM 16.0 °F - 8.8 °F 73% 30.27 in 10.0 mi Calm Calm - N/A   Clear
5:34 AM 15.4 °F - 8.6 °F 74% 30.27 in 10.0 mi Calm Calm - N/A   Clear
5:45 AM 15.8 °F - 8.6 °F 73% 30.28 in 10.0 mi Calm Calm - N/A   Clear
5:54 AM 15.6 °F - 8.4 °F 73% 30.28 in 10.0 mi Calm Calm - N/A   Clear
8:45 AM 24.8 °F - 15.8 °F 69% 30.30 in 10.0 mi Calm Calm - N/A   Clear
9:45 AM 26.6 °F 20.0 °F 12.2 °F 55% 30.30 in 10.0 mi ENE 5.8 mph - N/A   Clear
10:45 AM 30.2 °F 24.3 °F 12.2 °F 47% 30.30 in 10.0 mi ENE 5.8 mph - N/A   Scattered Clouds
11:45 AM 30.2 °F 26.7 °F 10.4 °F 44% 30.30 in 10.0 mi ESE 3.5 mph - N/A   Scattered Clouds
1:45 PM 33.8 °F - 10.4 °F 38% 30.28 in 10.0 mi Calm Calm - N/A   Scattered Clouds
2:45 PM 33.8 °F - 8.6 °F 35% 30.26 in 10.0 mi Calm Calm - N/A   Scattered Clouds
3:45 PM 33.8 °F 27.7 °F 12.2 °F 41% 30.24 in 10.0 mi East 6.9 mph - N/A   Scattered Clouds
4:45 PM 33.8 °F 27.7 °F 14.0 °F 44% 30.23 in 10.0 mi East 6.9 mph - N/A   Scattered Clouds
5:45 PM 32.0 °F 23.0 °F 15.8 °F 51% 30.23 in 10.0 mi East 11.5 mph - N/A   Clear
6:45 PM 28.4 °F 19.7 °F 15.8 °F 59% 30.23 in 10.0 mi East 9.2 mph - N/A   Clear
7:45 PM 26.6 °F 17.5 °F 15.8 °F 64% 30.24 in 10.0 mi East 9.2 mph - N/A   Clear
8:45 PM 23.0 °F 17.0 °F 14.0 °F 68% 30.27 in 10.0 mi ENE 4.6 mph - N/A   Clear
9:14 PM 22.6 °F - 14.5 °F 71% 30.28 in 10.0 mi Calm Calm - N/A   Clear
9:34 PM 22.1 °F - 14.2 °F 72% 30.28 in 10.0 mi Calm Calm - N/A   Clear
9:54 PM 21.4 °F - 14.2 °F 74% 30.28 in 10.0 mi Calm Calm - N/A   Clear
10:14 PM 22.1 °F - 15.4 °F 76% 30.28 in 10.0 mi Calm Calm - N/A   Clear
10:34 PM 19.4 °F - 13.5 °F 78% 30.28 in 10.0 mi Calm Calm - N/A   Clear
10:54 PM 21.6 °F - 14.4 °F 74% 30.28 in 10.0 mi Calm Calm - N/A   Clear
11:14 PM 21.4 °F - 14.0 °F 73% 30.27 in 10.0 mi Calm Calm - N/A   Clear
11:34 PM 21.0 °F - 15.4 °F 79% 30.27 in 10.0 mi Calm Calm - N/A   Clear
11:54 PM 20.7 °F - 15.3 °F 80% 30.27 in 10.0 mi Calm Calm - N/A   Clear